This is the latest recevied weather packets stored in our database for station/object KI5NXU. If no packets are shown the sender has not sent any weather packets the latest 10 day(s).
| Time | Temp. | Humidity | Pressure | Rain* | Wind** | Luminosity | Snow |
|---|---|---|---|---|---|---|---|
| 1777320072 | 33.33° C | 30% | 1007.9 hPa | 0 mm | - | 643 W/m² | - |
| 1777319769 | 33.33° C | 34% | 1008 hPa | 0 mm | - | 652 W/m² | - |
| 1777319466 | 32.78° C | 30% | 1008 hPa | 0 mm | - | 665 W/m² | - |
| 1777319162 | 33.33° C | 31% | 1008 hPa | 0 mm | - | 680 W/m² | - |
| 1777318860 | 33.33° C | 32% | 1008 hPa | 0 mm | - | 728 W/m² | - |
| 1777318557 | 32.78° C | 37% | 1008.3 hPa | 0 mm | - | 748 W/m² | - |
| 1777318254 | 33.33° C | 35% | 1008.1 hPa | 0 mm | - | 752 W/m² | - |
| 1777317950 | 33.33° C | 32% | 1008.4 hPa | 0 mm | - | 740 W/m² | - |
| 1777317647 | 32.78° C | 35% | 1008.2 hPa | 0 mm | - | 704 W/m² | - |
| 1777317344 | 32.22° C | 32% | 1008.2 hPa | 0 mm | - | 705 W/m² | - |
| 1777317039 | 31.67° C | 38% | 1008.3 hPa | 0 mm | - | 701 W/m² | - |
| 1777316737 | 32.22° C | 34% | 1008.4 hPa | 0 mm | - | 672 W/m² | - |
| 1777316432 | 32.22° C | 34% | 1008.4 hPa | 0 mm | - | 642 W/m² | - |
| 1777316130 | 32.78° C | 36% | 1008.3 hPa | 0 mm | - | 641 W/m² | - |
| 1777315828 | 32.22° C | 36% | 1008.5 hPa | 0 mm | - | 640 W/m² | - |
| 1777315527 | 32.22° C | 34% | 1008.4 hPa | 0 mm | - | 658 W/m² | - |
| 1777315224 | 32.22° C | 37% | 1008.4 hPa | 0 mm | - | 677 W/m² | - |
| 1777314921 | 32.22° C | 40% | 1008.5 hPa | 0 mm | - | 689 W/m² | - |
| 1777314616 | 31.67° C | 41% | 1008.3 hPa | 0 mm | - | 700 W/m² | - |
| 1777314314 | 31.67° C | 40% | 1008.6 hPa | 0 mm | - | 699 W/m² | - |
| 1777314011 | 31.67° C | 39% | 1008.5 hPa | 0 mm | - | 680 W/m² | - |
| 1777313708 | 31.67° C | 42% | 1008.6 hPa | 0 mm | - | 681 W/m² | - |
| 1777313406 | 31.67° C | 41% | 1008.6 hPa | 0 mm | - | 683 W/m² | - |
| 1777313102 | 31.11° C | 40% | 1008.7 hPa | 0 mm | - | 694 W/m² | - |
| 1777312798 | 31.11° C | 46% | 1008.4 hPa | 0 mm | - | 725 W/m² | - |
* Rain latest hour (hover to see other rain measurements)
** Current wind speed in m/s (hover to see current wind gust speed)